Starlink 32295

operational
NORAD ID: 62147 Int'l Des: 2024-224 Owner: SPXS Country: US Constellation: starlink
LEOCIRCULAR

Über Starlink 32295

Beschreibung wird geladen...

Live-Position

3D-Globus wird geladen...

Nächste Überflüge

Höhenverlauf

Altitude vs Time

uPlot chart will show altitude changes over time

Zweizeiliger Elementsatz

1 62147U 24224J 25258.49660161 .00011050 00000-0 41026-3 0 9992
2 62147 43.0011 67.7434 0001399 271.4924 88.5767 15.27598084 45574
Epoch: 15. Sept. 2025 • Age: 13 hours

Aktueller Status

Höhe 483.1 km
Geschwindigkeit 7.63 km/s
Subsatellitenpunkt 22.40°N, 153.32°W
Startdatum 30. Nov. 2024
Alter 0.7 years
Typ internet

Technische Details

Klassifizierung Payload
Masse 730.00 kg
Trockenmasse 700.00 kg
Gesamtmasse 730.00 kg
Länge 0.30 m
Durchmesser 4.10 m
Spannweite 29.00 m
Form Box + pan
Hersteller SPXS
Bus-Typ Starlink V2M
Phasenstatus In Orbit
Besitzer/Staat SPXS/US

Große Konstellationen

Loading constellations...